Time,TemperatureF,DewpointF,PressureIn,WindDirection,WindDirectionDegrees,WindSpeedMPH,WindSpeedGustMPH,Humidity,HourlyPrecipIn,Conditions,Clouds,dailyrainin,SoftwareType,DateUTC
2013-03-24 00:02:00,36.0,21.0,30.00,East,90,1.0,5.0,54,0.00,,,0.00,,2013-03-24 05:02:00,
2013-03-24 00:12:00,36.0,21.0,30.00,East,90,1.0,5.0,54,0.00,,,0.00,,2013-03-24 05:12:00,
2013-03-24 00:22:00,36.0,21.0,30.00,ENE,74,4.0,8.0,55,0.00,,,0.00,,2013-03-24 05:22:00,
2013-03-24 00:32:00,35.0,22.0,30.00,East,86,1.0,8.0,58,0.00,,,0.00,,2013-03-24 05:32:00,
2013-03-24 00:42:00,35.0,22.0,30.00,East,86,1.0,8.0,58,0.00,,,0.00,,2013-03-24 05:42:00,
2013-03-24 00:52:00,35.0,22.0,29.99,East,89,1.0,4.0,59,0.00,,,0.00,,2013-03-24 05:52:00,
2013-03-24 01:02:00,35.0,23.0,29.98,East,84,2.0,8.0,60,0.00,,,0.00,,2013-03-24 06:02:00,
2013-03-24 01:12:00,35.0,23.0,29.98,East,84,2.0,8.0,60,0.00,,,0.00,,2013-03-24 06:12:00,
2013-03-24 01:22:00,35.0,23.0,29.98,East,89,1.0,7.0,62,0.00,,,0.00,,2013-03-24 06:22:00,
2013-03-24 01:32:00,34.0,23.0,29.98,East,84,2.0,5.0,63,0.00,,,0.00,,2013-03-24 06:32:00,
2013-03-24 01:42:00,34.0,23.0,29.98,East,84,2.0,5.0,63,0.00,,,0.00,,2013-03-24 06:42:00,
2013-03-24 01:52:00,34.0,24.0,29.98,ENE,61,2.0,9.0,66,0.00,,,0.00,,2013-03-24 06:52:00,
2013-03-24 02:02:00,34.0,24.0,29.97,East,89,1.0,7.0,67,0.00,,,0.00,,2013-03-24 07:02:00,
2013-03-24 02:12:00,34.0,24.0,29.97,East,89,1.0,7.0,67,0.00,,,0.00,,2013-03-24 07:12:00,
2013-03-24 02:22:00,33.0,24.0,29.97,East,88,3.0,9.0,69,0.00,,,0.00,,2013-03-24 07:22:00,
2013-03-24 02:32:00,33.0,25.0,29.97,East,85,2.0,5.0,72,0.00,,,0.00,,2013-03-24 07:32:00,
2013-03-24 02:42:00,33.0,25.0,29.97,East,85,2.0,5.0,72,0.00,,,0.00,,2013-03-24 07:42:00,
2013-03-24 02:52:00,32.0,24.0,29.98,ESE,102,2.0,5.0,73,0.00,,,0.00,,2013-03-24 07:52:00,
2013-03-24 03:03:00,32.0,25.0,29.97,East,98,1.0,4.0,74,0.00,,,0.00,,2013-03-24 08:03:00,
2013-03-24 03:12:00,32.0,25.0,29.97,East,98,1.0,4.0,74,0.00,,,0.00,,2013-03-24 08:12:00,
2013-03-24 03:22:00,32.0,26.0,29.97,ENE,78,1.0,4.0,77,0.00,,,0.00,,2013-03-24 08:22:00,
2013-03-24 03:32:00,32.0,26.0,29.96,ENE,77,0.0,3.0,78,0.00,,,0.00,,2013-03-24 08:32:00,
2013-03-24 03:42:00,32.0,26.0,29.96,ENE,77,0.0,3.0,78,0.00,,,0.00,,2013-03-24 08:42:00,
2013-03-24 03:52:00,32.0,26.0,29.96,ENE,77,0.0,2.0,79,0.00,,,0.00,,2013-03-24 08:52:00,
2013-03-24 04:02:00,32.0,27.0,29.94,ENE,77,0.0,2.0,80,0.00,,,0.00,,2013-03-24 09:02:00,
2013-03-24 04:12:00,32.0,27.0,29.94,ENE,77,0.0,2.0,80,0.00,,,0.00,,2013-03-24 09:12:00,
2013-03-24 04:22:00,31.0,26.0,29.93,ENE,73,0.0,3.0,81,0.00,,,0.00,,2013-03-24 09:22:00,
2013-03-24 04:33:00,31.0,26.0,29.92,East,80,0.0,2.0,82,0.00,,,0.00,,2013-03-24 09:33:00,
2013-03-24 04:42:00,31.0,26.0,29.92,East,80,0.0,2.0,82,0.00,,,0.00,,2013-03-24 09:42:00,
2013-03-24 04:52:00,31.0,26.0,29.90,East,80,0.0,1.0,82,0.00,,,0.00,,2013-03-24 09:52:00,
2013-03-24 05:03:00,31.0,26.0,29.89,East,80,0.0,2.0,83,0.00,,,0.00,,2013-03-24 10:03:00,
2013-03-24 05:12:00,31.0,26.0,29.89,East,80,0.0,2.0,83,0.00,,,0.00,,2013-03-24 10:12:00,
2013-03-24 05:22:00,31.0,26.0,29.90,NNE,21,0.0,2.0,83,0.00,,,0.00,,2013-03-24 10:22:00,
2013-03-24 05:32:00,31.0,26.0,29.89,NE,34,0.0,3.0,83,0.00,,,0.00,,2013-03-24 10:32:00,
2013-03-24 05:42:00,31.0,26.0,29.89,NE,34,0.0,3.0,83,0.00,,,0.00,,2013-03-24 10:42:00,
2013-03-24 05:52:00,31.0,26.0,29.89,NNE,24,0.0,3.0,82,0.00,,,0.00,,2013-03-24 10:52:00,
2013-03-24 06:03:00,31.0,26.0,29.89,NNE,26,0.0,0.0,82,0.00,,,0.00,,2013-03-24 11:03:00,
2013-03-24 06:12:00,31.0,26.0,29.89,NNE,26,0.0,0.0,82,0.00,,,0.00,,2013-03-24 11:12:00,
2013-03-24 06:22:00,31.0,26.0,29.90,NE,49,0.0,1.0,81,0.00,,,0.00,,2013-03-24 11:22:00,
2013-03-24 06:32:00,32.0,27.0,29.90,ENE,58,0.0,1.0,81,0.00,,,0.00,,2013-03-24 11:32:00,
2013-03-24 06:42:00,32.0,27.0,29.90,ENE,58,0.0,1.0,81,0.00,,,0.00,,2013-03-24 11:42:00,
2013-03-24 06:52:00,32.0,27.0,29.89,ENE,57,0.0,1.0,81,0.00,,,0.00,,2013-03-24 11:52:00,
2013-03-24 07:02:00,31.0,26.0,29.89,ENE,58,0.0,0.0,82,0.00,,,0.00,,2013-03-24 12:02:00,
2013-03-24 07:12:00,31.0,26.0,29.89,ENE,58,0.0,0.0,82,0.00,,,0.00,,2013-03-24 12:12:00,
2013-03-24 07:22:00,31.0,26.0,29.88,ENE,62,0.0,2.0,82,0.01,,,0.01,,2013-03-24 12:22:00,
2013-03-24 07:32:00,31.0,26.0,29.87,ENE,63,0.0,3.0,83,0.01,,,0.01,,2013-03-24 12:32:00,
2013-03-24 07:42:00,31.0,26.0,29.87,ENE,63,0.0,3.0,83,0.01,,,0.01,,2013-03-24 12:42:00,
2013-03-24 07:52:00,31.0,27.0,29.87,ENE,71,0.0,2.0,84,0.01,,,0.01,,2013-03-24 12:52:00,
2013-03-24 08:02:00,31.0,27.0,29.86,ENE,63,0.0,2.0,84,0.01,,,0.01,,2013-03-24 13:02:00,
2013-03-24 08:12:00,31.0,27.0,29.86,ENE,63,0.0,2.0,84,0.01,,,0.01,,2013-03-24 13:12:00,
2013-03-24 08:22:00,31.0,27.0,29.85,North,355,0.0,3.0,84,0.00,,,0.01,,2013-03-24 13:22:00,
2013-03-24 08:32:00,31.0,27.0,29.84,East,94,0.0,4.0,84,0.00,,,0.01,,2013-03-24 13:32:00,
2013-03-24 08:42:00,31.0,27.0,29.84,East,94,0.0,4.0,84,0.00,,,0.01,,2013-03-24 13:42:00,
2013-03-24 08:52:00,31.0,26.0,29.82,NNE,30,0.0,3.0,83,0.00,,,0.01,,2013-03-24 13:52:00,
2013-03-24 09:02:00,31.0,27.0,29.81,NE,51,0.0,3.0,84,0.00,,,0.01,,2013-03-24 14:02:00,
2013-03-24 09:12:00,31.0,27.0,29.81,NE,51,0.0,3.0,84,0.00,,,0.01,,2013-03-24 14:12:00,
2013-03-24 09:22:00,31.0,26.0,29.81,NE,45,0.0,4.0,83,0.00,,,0.01,,2013-03-24 14:22:00,
2013-03-24 09:32:00,31.0,26.0,29.81,NNE,32,0.0,3.0,83,0.00,,,0.01,,2013-03-24 14:32:00,
2013-03-24 09:42:00,31.0,26.0,29.81,NNE,32,0.0,3.0,83,0.00,,,0.01,,2013-03-24 14:42:00,
2013-03-24 09:52:00,31.0,26.0,29.80,ENE,68,1.0,4.0,83,0.00,,,0.01,,2013-03-24 14:52:00,
2013-03-24 10:02:00,31.0,26.0,29.81,NE,43,0.0,3.0,83,0.00,,,0.01,,2013-03-24 15:02:00,
2013-03-24 10:12:00,31.0,26.0,29.81,NE,43,0.0,3.0,83,0.00,,,0.01,,2013-03-24 15:12:00,
2013-03-24 10:22:00,31.0,26.0,29.80,NNW,347,1.0,6.0,83,0.00,,,0.01,,2013-03-24 15:22:00,
2013-03-24 10:33:00,32.0,27.0,29.81,ENE,61,0.0,4.0,82,0.00,,,0.01,,2013-03-24 15:33:00,
2013-03-24 10:43:00,32.0,27.0,29.81,ENE,61,0.0,4.0,82,0.00,,,0.01,,2013-03-24 15:43:00,
2013-03-24 10:53:00,32.0,27.0,29.81,NE,37,1.0,3.0,82,0.00,,,0.01,,2013-03-24 15:53:00,
2013-03-24 11:03:00,32.0,27.0,29.81,ENE,69,1.0,5.0,81,0.00,,,0.01,,2013-03-24 16:03:00,
2013-03-24 11:12:00,32.0,27.0,29.81,ENE,69,1.0,5.0,81,0.00,,,0.01,,2013-03-24 16:12:00,
2013-03-24 11:22:00,32.0,27.0,29.81,NNE,17,1.0,3.0,81,0.00,,,0.01,,2013-03-24 16:22:00,
2013-03-24 11:33:00,33.0,28.0,29.81,ENE,63,0.0,1.0,81,0.00,,,0.01,,2013-03-24 16:33:00,
2013-03-24 11:42:00,33.0,28.0,29.81,ENE,63,0.0,1.0,81,0.00,,,0.01,,2013-03-24 16:42:00,
2013-03-24 11:52:00,33.0,28.0,29.81,ENE,63,0.0,1.0,82,0.01,,,0.02,,2013-03-24 16:52:00,
2013-03-24 12:02:00,33.0,28.0,29.80,North,11,1.0,2.0,82,0.01,,,0.02,,2013-03-24 17:02:00,
2013-03-24 12:12:00,33.0,28.0,29.80,North,11,1.0,2.0,82,0.01,,,0.02,,2013-03-24 17:12:00,
2013-03-24 12:23:00,33.0,28.0,29.80,NNE,13,1.0,3.0,82,0.02,,,0.03,,2013-03-24 17:23:00,
2013-03-24 12:32:00,33.0,28.0,29.79,NNE,16,0.0,3.0,83,0.03,,,0.04,,2013-03-24 17:32:00,
2013-03-24 12:42:00,33.0,28.0,29.79,NNE,16,0.0,3.0,83,0.03,,,0.04,,2013-03-24 17:42:00,
2013-03-24 12:53:00,33.0,29.0,29.78,North,5,0.0,5.0,84,0.02,,,0.04,,2013-03-24 17:53:00,
2013-03-24 13:02:00,33.0,29.0,29.78,North,360,1.0,4.0,84,0.02,,,0.04,,2013-03-24 18:02:00,
2013-03-24 13:12:00,33.0,29.0,29.78,North,360,1.0,4.0,84,0.02,,,0.04,,2013-03-24 18:12:00,
2013-03-24 13:22:00,33.0,29.0,29.77,NNE,15,2.0,5.0,84,0.01,,,0.04,,2013-03-24 18:22:00,
2013-03-24 13:32:00,33.0,28.0,29.76,NNE,33,2.0,7.0,83,0.00,,,0.04,,2013-03-24 18:32:00,
2013-03-24 13:43:00,33.0,28.0,29.76,NNE,33,2.0,7.0,83,0.00,,,0.04,,2013-03-24 18:43:00,
2013-03-24 14:02:00,34.0,29.0,29.76,ENE,61,1.0,3.0,83,0.00,,,0.04,,2013-03-24 19:02:00,
2013-03-24 14:12:00,34.0,29.0,29.76,ENE,61,1.0,3.0,83,0.00,,,0.04,,2013-03-24 19:12:00,
2013-03-24 14:22:00,34.0,29.0,29.75,NNE,29,2.0,5.0,83,0.00,,,0.04,,2013-03-24 19:22:00,
2013-03-24 14:32:00,34.0,29.0,29.75,NE,54,3.0,7.0,82,0.00,,,0.04,,2013-03-24 19:32:00,
2013-03-24 14:43:00,34.0,29.0,29.75,NE,54,3.0,7.0,82,0.00,,,0.04,,2013-03-24 19:43:00,
2013-03-24 14:53:00,33.0,28.0,29.74,NE,48,2.0,6.0,83,0.00,,,0.04,,2013-03-24 19:53:00,
2013-03-24 15:02:00,33.0,29.0,29.73,North,360,3.0,5.0,84,0.00,,,0.04,,2013-03-24 20:02:00,
2013-03-24 15:12:00,33.0,29.0,29.73,North,360,3.0,5.0,84,0.00,,,0.04,,2013-03-24 20:12:00,
2013-03-24 15:22:00,33.0,29.0,29.72,NNE,32,2.0,5.0,84,0.00,,,0.04,,2013-03-24 20:22:00,
2013-03-24 15:32:00,33.0,29.0,29.73,NE,36,3.0,5.0,84,0.00,,,0.04,,2013-03-24 20:32:00,
2013-03-24 15:42:00,33.0,29.0,29.73,NE,36,3.0,5.0,84,0.00,,,0.04,,2013-03-24 20:42:00,
2013-03-24 15:53:00,33.0,29.0,29.73,North,360,2.0,7.0,84,0.00,,,0.04,,2013-03-24 20:53:00,
2013-03-24 16:02:00,33.0,29.0,29.72,North,360,4.0,8.0,84,0.00,,,0.04,,2013-03-24 21:02:00,
2013-03-24 16:12:00,33.0,29.0,29.72,North,360,4.0,8.0,84,0.00,,,0.04,,2013-03-24 21:12:00,
2013-03-24 16:22:00,33.0,29.0,29.72,North,360,4.0,8.0,84,0.00,,,0.04,,2013-03-24 21:22:00,
2013-03-24 16:33:00,33.0,29.0,29.73,NNE,28,4.0,12.0,84,0.00,,,0.04,,2013-03-24 21:33:00,
2013-03-24 16:43:00,33.0,29.0,29.73,NNE,28,4.0,12.0,84,0.00,,,0.04,,2013-03-24 21:43:00,
2013-03-24 16:53:00,32.0,28.0,29.73,North,9,4.0,8.0,84,0.00,,,0.04,,2013-03-24 21:53:00,
2013-03-24 17:03:00,32.0,28.0,29.74,NNE,32,3.0,7.0,84,0.01,,,0.05,,2013-03-24 22:03:00,
2013-03-24 17:13:00,32.0,28.0,29.74,NNE,32,3.0,7.0,84,0.01,,,0.05,,2013-03-24 22:13:00,
2013-03-24 17:23:00,32.0,28.0,29.75,ENE,60,4.0,8.0,84,0.01,,,0.05,,2013-03-24 22:23:00,
2013-03-24 17:33:00,32.0,28.0,29.75,North,355,4.0,8.0,85,0.01,,,0.05,,2013-03-24 22:33:00,
2013-03-24 17:42:00,32.0,28.0,29.75,North,355,4.0,8.0,85,0.01,,,0.05,,2013-03-24 22:42:00,
2013-03-24 17:52:00,32.0,28.0,29.75,North,360,3.0,9.0,85,0.02,,,0.06,,2013-03-24 22:52:00,
2013-03-24 18:02:00,32.0,28.0,29.76,North,5,4.0,7.0,85,0.01,,,0.06,,2013-03-24 23:02:00,
2013-03-24 18:12:00,32.0,28.0,29.76,North,5,4.0,7.0,85,0.01,,,0.06,,2013-03-24 23:12:00,
2013-03-24 18:22:00,32.0,28.0,29.77,NNE,30,3.0,7.0,85,0.01,,,0.06,,2013-03-24 23:22:00,
2013-03-24 18:32:00,31.0,27.0,29.77,NNE,14,5.0,9.0,85,0.01,,,0.06,,2013-03-24 23:32:00,
2013-03-24 18:42:00,31.0,27.0,29.77,NNE,14,5.0,9.0,85,0.01,,,0.06,,2013-03-24 23:42:00,
2013-03-24 18:52:00,31.0,27.0,29.78,NNE,23,3.0,6.0,85,0.00,,,0.06,,2013-03-24 23:52:00,
2013-03-24 19:02:00,31.0,27.0,29.78,NNE,16,3.0,9.0,85,0.00,,,0.06,,2013-03-25 00:02:00,
2013-03-24 19:12:00,31.0,27.0,29.78,NNE,16,3.0,9.0,85,0.00,,,0.06,,2013-03-25 00:12:00,
2013-03-24 19:22:00,31.0,27.0,29.79,NNE,19,4.0,9.0,85,0.00,,,0.06,,2013-03-25 00:22:00,
2013-03-24 19:32:00,31.0,27.0,29.79,NNE,19,5.0,9.0,85,0.01,,,0.07,,2013-03-25 00:32:00,
2013-03-24 19:42:00,31.0,27.0,29.79,NNE,19,5.0,9.0,85,0.01,,,0.07,,2013-03-25 00:42:00,
2013-03-24 19:53:00,31.0,27.0,29.79,NNE,14,4.0,6.0,85,0.01,,,0.07,,2013-03-25 00:53:00,
2013-03-24 20:02:00,31.0,27.0,29.80,NNE,12,3.0,7.0,85,0.01,,,0.07,,2013-03-25 01:02:00,
2013-03-24 20:12:00,31.0,27.0,29.80,NNE,12,3.0,7.0,85,0.01,,,0.07,,2013-03-25 01:12:00,
2013-03-24 20:22:00,31.0,27.0,29.80,NNW,338,3.0,10.0,85,0.01,,,0.07,,2013-03-25 01:22:00,
2013-03-24 20:32:00,31.0,27.0,29.80,NNE,17,3.0,9.0,85,0.01,,,0.07,,2013-03-25 01:32:00,
2013-03-24 20:42:00,31.0,27.0,29.80,NNE,17,3.0,9.0,85,0.01,,,0.07,,2013-03-25 01:42:00,
2013-03-24 20:52:00,31.0,27.0,29.81,NNW,348,5.0,10.0,86,0.00,,,0.07,,2013-03-25 01:52:00,
2013-03-24 21:02:00,31.0,27.0,29.81,North,11,4.0,10.0,86,0.01,,,0.08,,2013-03-25 02:02:00,
2013-03-24 21:12:00,31.0,27.0,29.81,North,11,4.0,10.0,86,0.01,,,0.08,,2013-03-25 02:12:00,
2013-03-24 21:22:00,31.0,27.0,29.81,North,349,5.0,10.0,85,0.01,,,0.08,,2013-03-25 02:22:00,
2013-03-24 21:32:00,31.0,27.0,29.82,North,360,4.0,8.0,85,0.01,,,0.08,,2013-03-25 02:32:00,
2013-03-24 21:42:00,31.0,27.0,29.82,North,360,4.0,8.0,85,0.01,,,0.08,,2013-03-25 02:42:00,
2013-03-24 21:52:00,31.0,27.0,29.82,North,360,7.0,11.0,85,0.01,,,0.08,,2013-03-25 02:52:00,
2013-03-24 22:02:00,31.0,27.0,29.82,North,5,5.0,11.0,85,0.00,,,0.08,,2013-03-25 03:02:00,
2013-03-24 22:13:00,31.0,27.0,29.82,North,5,5.0,11.0,85,0.00,,,0.08,,2013-03-25 03:13:00,
2013-03-24 22:22:00,31.0,27.0,29.82,NNW,346,3.0,7.0,85,0.00,,,0.08,,2013-03-25 03:22:00,
2013-03-24 22:33:00,31.0,27.0,29.82,North,9,4.0,9.0,85,0.00,,,0.08,,2013-03-25 03:33:00,
2013-03-24 22:42:00,30.0,26.0,29.82,North,5,6.0,9.0,85,0.00,,,0.08,,2013-03-25 03:42:00,
2013-03-24 22:52:00,30.0,26.0,29.82,North,5,6.0,9.0,85,0.00,,,0.08,,2013-03-25 03:52:00,
2013-03-24 23:02:00,30.0,26.0,29.82,North,5,5.0,10.0,86,0.00,,,0.08,,2013-03-25 04:02:00,
2013-03-24 23:12:00,30.0,26.0,29.82,North,5,5.0,10.0,86,0.00,,,0.08,,2013-03-25 04:12:00,
2013-03-24 23:22:00,30.0,26.0,29.82,North,355,4.0,10.0,86,0.00,,,0.08,,2013-03-25 04:22:00,
2013-03-24 23:33:00,30.0,26.0,29.82,North,355,5.0,8.0,85,0.00,,,0.08,,2013-03-25 04:33:00,
2013-03-24 23:42:00,30.0,26.0,29.82,North,355,5.0,8.0,85,0.00,,,0.08,,2013-03-25 04:42:00,
2013-03-24 23:52:00,30.0,26.0,29.82,North,360,4.0,10.0,85,0.00,,,0.08,,2013-03-25 04:52:00,